Time,TemperatureF,DewpointF,PressureIn,WindDirection,WindDirectionDegrees,WindSpeedMPH,WindSpeedGustMPH,Humidity,HourlyPrecipIn,Conditions,Clouds,dailyrainin,SolarRadiationWatts/m^2,SoftwareType,DateUTC
2013-11-26 00:04:00,41.7,38.4,30.54,NNE,32,0.0,0.0,88,0.00,RA,,0.00,0.0,WeatherDisplay:10.37,2013-11-25 23:04:00,
2013-11-26 00:09:00,41.6,38.3,30.54,NNE,31,0.0,0.0,88,0.00,RA,,0.00,0.0,WeatherDisplay:10.37,2013-11-25 23:09:00,
2013-11-26 00:14:00,41.6,38.3,30.54,NNE,31,0.0,0.0,88,0.00,RA,,0.00,0.0,WeatherDisplay:10.37,2013-11-25 23:14:00,
2013-11-26 00:19:00,41.5,38.5,30.54,NNE,32,0.0,0.0,89,0.00,RA,,0.00,0.0,WeatherDisplay:10.37,2013-11-25 23:19:00,
2013-11-26 00:24:00,41.5,38.5,30.54,NNE,32,0.0,0.0,89,0.00,RA,,0.00,0.0,WeatherDisplay:10.37,2013-11-25 23:24:00,
2013-11-26 00:29:00,41.5,38.5,30.54,NNE,31,2.3,3.5,89,0.00,OVC,,0.00,0.0,WeatherDisplay:10.37,2013-11-25 23:29:00,
2013-11-26 00:34:00,41.5,38.5,30.54,NNE,32,3.4,4.0,89,0.00,OVC,,0.00,0.0,WeatherDisplay:10.37,2013-11-25 23:34:00,
2013-11-26 00:39:00,41.5,38.5,30.54,NNE,31,1.4,3.5,89,0.00,OVC,,0.00,0.0,WeatherDisplay:10.37,2013-11-25 23:39:00,
2013-11-26 00:44:00,41.5,38.5,30.54,NNE,31,4.1,6.0,89,0.00,SCT,,0.00,0.0,WeatherDisplay:10.37,2013-11-25 23:44:00,
2013-11-26 00:49:00,41.6,38.6,30.55,NNE,31,1.8,3.5,89,0.00,SCT,,0.00,0.0,WeatherDisplay:10.37,2013-11-25 23:49:00,
2013-11-26 00:54:00,41.7,38.7,30.54,NNE,31,3.0,5.8,89,0.00,SCT,,0.00,0.0,WeatherDisplay:10.37,2013-11-25 23:54:00,
2013-11-26 00:59:00,41.8,38.8,30.54,NNE,31,4.6,4.6,89,0.00,SCT,,0.00,0.0,WeatherDisplay:10.37,2013-11-25 23:59:00,
2013-11-26 01:04:00,41.9,38.9,30.54,NNE,31,1.8,4.0,89,0.00,SCT,,0.00,0.0,WeatherDisplay:10.37,2013-11-26 00:04:00,
2013-11-26 01:09:00,41.9,38.9,30.54,NNE,32,0.5,4.0,89,0.00,SCT,,0.00,0.0,WeatherDisplay:10.37,2013-11-26 00:09:00,
2013-11-26 01:14:00,42.0,39.0,30.54,NNE,31,3.0,3.0,89,0.00,BKN,,0.00,0.0,WeatherDisplay:10.37,2013-11-26 00:14:00,
2013-11-26 01:19:00,42.0,39.0,30.54,NNE,31,2.2,3.5,89,0.00,BKN,,0.00,0.0,WeatherDisplay:10.37,2013-11-26 00:19:00,
2013-11-26 01:24:00,42.0,39.0,30.54,NNE,32,1.4,3.5,89,0.00,BKN,,0.00,0.0,WeatherDisplay:10.37,2013-11-26 00:24:00,
2013-11-26 01:29:00,42.0,39.0,30.54,NNE,31,0.0,0.0,89,0.00,BKN,,0.00,0.0,WeatherDisplay:10.37,2013-11-26 00:29:00,
2013-11-26 01:34:00,41.9,38.9,30.54,NNE,31,0.0,3.5,89,0.00,BKN,,0.00,0.0,WeatherDisplay:10.37,2013-11-26 00:34:00,
2013-11-26 01:39:00,41.8,38.8,30.54,NNE,31,0.0,2.3,89,0.00,BKN,,0.00,0.0,WeatherDisplay:10.37,2013-11-26 00:39:00,
2013-11-26 01:44:00,41.8,38.8,30.54,NNE,31,0.0,0.0,89,0.00,OVC,,0.00,0.0,WeatherDisplay:10.37,2013-11-26 00:44:00,
2013-11-26 01:49:00,41.7,38.7,30.54,NNE,31,2.6,2.6,89,0.00,OVC,,0.00,0.0,WeatherDisplay:10.37,2013-11-26 00:49:00,
2013-11-26 01:54:00,41.7,38.7,30.54,NNE,31,2.5,4.0,89,0.00,OVC,,0.00,0.0,WeatherDisplay:10.37,2013-11-26 00:54:00,
2013-11-26 01:59:00,41.7,38.7,30.55,NNE,31,2.5,4.0,89,0.00,OVC,,0.00,0.0,WeatherDisplay:10.37,2013-11-26 00:59:00,
2013-11-26 02:04:00,41.8,39.1,30.55,NNE,32,2.9,5.8,90,0.00,BKN,,0.00,0.0,WeatherDisplay:10.37,2013-11-26 01:04:00,
2013-11-26 02:09:00,41.9,39.2,30.55,NNE,31,0.0,2.3,90,0.00,BKN,,0.00,0.0,WeatherDisplay:10.37,2013-11-26 01:09:00,
2013-11-26 02:14:00,42.0,39.3,30.54,NNE,31,0.0,0.0,90,0.00,BKN,,0.00,0.0,WeatherDisplay:10.37,2013-11-26 01:14:00,
2013-11-26 02:19:00,42.1,39.4,30.54,NNE,31,1.6,3.5,90,0.00,BKN,,0.00,0.0,WeatherDisplay:10.37,2013-11-26 01:19:00,
2013-11-26 02:24:00,42.1,39.4,30.54,NNE,32,1.9,5.8,90,0.00,BKN,,0.00,0.0,WeatherDisplay:10.37,2013-11-26 01:24:00,
2013-11-26 02:29:00,42.1,39.4,30.54,NNE,31,0.0,0.0,90,0.00,BKN,,0.00,0.0,WeatherDisplay:10.37,2013-11-26 01:29:00,
2013-11-26 02:34:00,42.1,39.1,30.54,NNE,31,0.0,0.0,89,0.00,BKN,,0.00,0.0,WeatherDisplay:10.37,2013-11-26 01:34:00,
2013-11-26 02:39:00,42.0,39.3,30.54,NNE,31,1.5,3.5,90,0.00,BKN,,0.00,0.0,WeatherDisplay:10.37,2013-11-26 01:39:00,
2013-11-26 02:44:00,42.0,39.0,30.54,NNE,32,2.4,3.5,89,0.00,BKN,,0.00,0.0,WeatherDisplay:10.37,2013-11-26 01:44:00,
2013-11-26 02:49:00,42.0,39.0,30.55,NNE,31,2.8,5.8,89,0.00,BKN,,0.00,0.0,WeatherDisplay:10.37,2013-11-26 01:49:00,
2013-11-26 02:54:00,42.0,39.3,30.54,NNE,31,2.9,4.6,90,0.00,BKN,,0.00,0.0,WeatherDisplay:10.37,2013-11-26 01:54:00,
2013-11-26 02:59:00,42.1,39.4,30.54,NNE,31,2.5,5.8,90,0.00,BKN,,0.00,0.0,WeatherDisplay:10.37,2013-11-26 01:59:00,
2013-11-26 03:04:00,42.1,39.1,30.54,NNE,31,2.4,4.6,89,0.00,FEW,,0.00,0.0,WeatherDisplay:10.37,2013-11-26 02:04:00,
2013-11-26 03:09:00,42.2,39.2,30.54,NNE,32,3.0,3.5,89,0.00,FEW,,0.00,0.0,WeatherDisplay:10.37,2013-11-26 02:09:00,
2013-11-26 03:14:00,42.2,39.2,30.54,NNE,32,0.3,3.5,89,0.00,FEW,,0.00,0.0,WeatherDisplay:10.37,2013-11-26 02:14:00,
2013-11-26 03:19:00,42.2,39.2,30.54,NNE,31,1.7,3.5,89,0.00,FEW,,0.00,0.0,WeatherDisplay:10.37,2013-11-26 02:19:00,
2013-11-26 03:24:00,42.2,39.2,30.54,NNE,32,0.6,4.6,89,0.00,FEW,,0.00,0.0,WeatherDisplay:10.37,2013-11-26 02:24:00,
2013-11-26 03:29:00,42.2,39.2,30.54,NNE,31,0.0,0.0,89,0.00,FEW,,0.00,0.0,WeatherDisplay:10.37,2013-11-26 02:29:00,
2013-11-26 03:34:00,42.2,39.2,30.54,NNE,31,0.0,0.0,89,0.00,FEW,,0.00,0.0,WeatherDisplay:10.37,2013-11-26 02:34:00,
2013-11-26 03:39:00,42.1,39.1,30.54,NNE,31,2.8,5.0,89,0.00,FEW,,0.00,0.0,WeatherDisplay:10.37,2013-11-26 02:39:00,
2013-11-26 03:44:00,42.2,39.2,30.54,NNE,31,2.1,3.5,89,0.00,FEW,,0.00,0.0,WeatherDisplay:10.37,2013-11-26 02:44:00,
2013-11-26 03:49:00,42.2,39.2,30.54,NNE,31,2.9,3.5,89,0.00,FEW,,0.00,0.0,WeatherDisplay:10.37,2013-11-26 02:49:00,
2013-11-26 03:54:00,42.3,39.3,30.54,NNE,31,0.0,3.5,89,0.00,FEW,,0.00,0.0,WeatherDisplay:10.37,2013-11-26 02:54:00,
2013-11-26 03:59:00,42.3,39.6,30.54,NNE,31,0.0,0.0,90,0.00,FEW,,0.00,0.0,WeatherDisplay:10.37,2013-11-26 02:59:00,
2013-11-26 04:04:00,42.3,39.6,30.54,NNE,31,0.0,0.0,90,0.00,FEW,,0.00,0.0,WeatherDisplay:10.37,2013-11-26 03:04:00,
2013-11-26 04:09:00,42.3,39.6,30.53,NNE,31,1.5,2.3,90,0.00,FEW,,0.00,0.0,WeatherDisplay:10.37,2013-11-26 03:09:00,
2013-11-26 04:14:00,42.3,39.6,30.53,NNE,32,0.0,0.0,90,0.00,FEW,,0.00,0.0,WeatherDisplay:10.37,2013-11-26 03:14:00,
2013-11-26 04:19:00,42.3,39.6,30.54,NNE,31,0.0,0.0,90,0.00,FEW,,0.00,0.0,WeatherDisplay:10.37,2013-11-26 03:19:00,
2013-11-26 04:24:00,42.2,39.5,30.54,NNE,32,1.5,2.3,90,0.00,BKN,,0.00,0.0,WeatherDisplay:10.37,2013-11-26 03:24:00,
2013-11-26 04:29:00,42.1,39.4,30.53,NNE,31,0.0,0.0,90,0.00,BKN,,0.00,0.0,WeatherDisplay:10.37,2013-11-26 03:29:00,
2013-11-26 04:34:00,42.0,39.3,30.54,NNE,31,0.0,0.0,90,0.00,BKN,,0.00,0.0,WeatherDisplay:10.37,2013-11-26 03:34:00,
2013-11-26 04:39:00,41.9,39.2,30.54,NNE,31,0.0,0.0,90,0.00,BKN,,0.00,0.0,WeatherDisplay:10.37,2013-11-26 03:39:00,
2013-11-26 04:44:00,41.8,39.1,30.54,NNE,31,0.0,0.0,90,0.00,BKN,,0.00,0.0,WeatherDisplay:10.37,2013-11-26 03:44:00,
2013-11-26 04:49:00,41.7,39.0,30.54,NNE,31,0.0,0.0,90,0.00,BKN,,0.00,0.0,WeatherDisplay:10.37,2013-11-26 03:49:00,
2013-11-26 04:54:00,41.8,39.3,30.54,NNE,32,0.0,0.0,91,0.00,BKN,,0.00,0.0,WeatherDisplay:10.37,2013-11-26 03:54:00,
2013-11-26 04:59:00,41.8,39.3,30.54,NNE,31,0.0,0.0,91,0.00,BKN,,0.00,0.0,WeatherDisplay:10.37,2013-11-26 03:59:00,
2013-11-26 05:04:00,42.0,39.5,30.54,NNE,31,3.4,4.0,91,0.00,-RA,,0.00,0.0,WeatherDisplay:10.37,2013-11-26 04:04:00,
2013-11-26 05:09:00,42.1,39.6,30.54,NNE,31,2.0,3.0,91,0.00,-RA,,0.00,0.0,WeatherDisplay:10.37,2013-11-26 04:09:00,
2013-11-26 05:14:00,42.1,39.6,30.54,NNE,31,0.7,3.5,91,0.00,-RA,,0.00,0.0,WeatherDisplay:10.37,2013-11-26 04:14:00,
2013-11-26 05:19:00,42.2,39.7,30.54,NNE,31,0.0,0.0,91,0.00,-RA,,0.00,0.0,WeatherDisplay:10.37,2013-11-26 04:19:00,
2013-11-26 05:24:00,42.2,39.7,30.54,NNE,31,0.0,0.0,91,0.00,-RA,,0.00,0.0,WeatherDisplay:10.37,2013-11-26 04:24:00,
2013-11-26 05:29:00,42.3,40.1,30.54,NNE,31,0.0,0.0,92,0.00,-RA,,0.00,0.0,WeatherDisplay:10.37,2013-11-26 04:29:00,
2013-11-26 05:34:00,42.4,40.2,30.54,NNE,31,0.0,0.0,92,0.00,FEW,,0.00,0.0,WeatherDisplay:10.37,2013-11-26 04:34:00,
2013-11-26 05:39:00,42.4,40.2,30.54,NNE,31,1.5,3.5,92,0.00,FEW,,0.00,0.0,WeatherDisplay:10.37,2013-11-26 04:39:00,
2013-11-26 05:44:00,42.4,40.2,30.53,NNE,31,1.2,3.0,92,0.00,FEW,,0.00,0.0,WeatherDisplay:10.37,2013-11-26 04:44:00,
2013-11-26 05:49:00,42.4,40.2,30.53,NNE,32,3.8,4.6,92,0.00,FEW,,0.00,0.0,WeatherDisplay:10.37,2013-11-26 04:49:00,
2013-11-26 05:54:00,42.6,40.4,30.53,NNE,32,3.5,5.0,92,0.00,FEW,,0.00,0.0,WeatherDisplay:10.37,2013-11-26 04:54:00,
2013-11-26 05:59:00,42.6,40.4,30.53,NNE,31,0.0,3.5,92,0.00,FEW,,0.00,0.0,WeatherDisplay:10.37,2013-11-26 04:59:00,
2013-11-26 06:01:00,42.6,40.4,30.53,NNE,31,0.7,1.0,92,0.00,FEW,,0.00,0.0,WeatherDisplay:10.37,2013-11-26 05:01:00,
2013-11-26 06:02:00,42.6,40.4,30.53,NNE,31,1.2,2.3,92,0.00,FEW,,0.00,0.0,WeatherDisplay:10.37,2013-11-26 05:02:00,
2013-11-26 06:07:00,42.6,40.4,30.53,NNE,31,0.0,0.0,92,0.00,FEW,,0.00,0.0,WeatherDisplay:10.37,2013-11-26 05:07:00,
2013-11-26 06:12:00,42.5,40.3,30.53,NNE,32,0.0,0.0,92,0.00,FEW,,0.00,0.0,WeatherDisplay:10.37,2013-11-26 05:12:00,
2013-11-26 06:17:00,42.5,40.3,30.53,NNE,32,0.0,0.0,92,0.00,FEW,,0.00,0.0,WeatherDisplay:10.37,2013-11-26 05:17:00,
2013-11-26 06:22:00,42.4,40.2,30.54,NNE,31,0.0,0.0,92,0.00,FEW,,0.00,0.0,WeatherDisplay:10.37,2013-11-26 05:22:00,
2013-11-26 06:27:00,42.4,40.2,30.54,NNE,31,1.6,3.5,92,0.00,FEW,,0.00,0.0,WeatherDisplay:10.37,2013-11-26 05:27:00,
2013-11-26 06:32:00,42.4,40.2,30.54,NNE,31,2.2,3.5,92,0.00,OVC,,0.00,0.0,WeatherDisplay:10.37,2013-11-26 05:32:00,
2013-11-26 06:37:00,42.5,40.3,30.54,NNE,32,2.9,5.8,92,0.00,OVC,,0.00,0.0,WeatherDisplay:10.37,2013-11-26 05:37:00,
2013-11-26 06:42:00,42.6,40.4,30.54,NNE,31,0.2,2.3,92,0.00,OVC,,0.00,0.0,WeatherDisplay:10.37,2013-11-26 05:42:00,
2013-11-26 06:47:00,42.7,40.2,30.54,NNE,32,0.0,0.0,91,0.00,OVC,,0.00,0.0,WeatherDisplay:10.37,2013-11-26 05:47:00,
2013-11-26 06:52:00,42.7,40.2,30.54,NNE,31,0.0,0.0,91,0.00,OVC,,0.00,0.0,WeatherDisplay:10.37,2013-11-26 05:52:00,
2013-11-26 06:57:00,42.8,40.3,30.54,NNE,32,0.0,0.0,91,0.00,OVC,,0.00,0.0,WeatherDisplay:10.37,2013-11-26 05:57:00,
2013-11-26 07:02:00,42.9,40.1,30.54,NNE,32,0.0,0.0,90,0.00,OVC,,0.00,0.0,WeatherDisplay:10.37,2013-11-26 06:02:00,
2013-11-26 07:07:00,42.9,40.1,30.55,NNE,31,1.4,3.5,90,0.00,OVC,,0.00,0.0,WeatherDisplay:10.37,2013-11-26 06:07:00,
2013-11-26 07:12:00,42.9,40.1,30.55,NNE,31,1.5,3.5,90,0.00,OVC,,0.00,0.0,WeatherDisplay:10.37,2013-11-26 06:12:00,
2013-11-26 07:17:00,42.9,40.1,30.55,NNE,32,1.0,3.5,90,0.00,OVC,,0.00,0.0,WeatherDisplay:10.37,2013-11-26 06:17:00,
2013-11-26 07:22:00,42.9,40.1,30.55,NNE,31,0.0,0.0,90,0.00,OVC,,0.00,0.0,WeatherDisplay:10.37,2013-11-26 06:22:00,
2013-11-26 07:27:00,42.9,39.9,30.55,NNE,32,0.0,0.0,89,0.00,OVC,,0.00,0.0,WeatherDisplay:10.37,2013-11-26 06:27:00,
2013-11-26 07:32:00,42.9,39.9,30.55,NNE,31,0.0,0.0,89,0.00,OVC,,0.00,0.0,WeatherDisplay:10.37,2013-11-26 06:32:00,
2013-11-26 07:37:00,42.9,39.9,30.55,NNE,32,0.0,0.0,89,0.00,OVC,,0.00,0.0,WeatherDisplay:10.37,2013-11-26 06:37:00,
2013-11-26 07:42:00,43.0,40.0,30.55,NNE,32,0.0,0.0,89,0.00,OVC,,0.00,0.0,WeatherDisplay:10.37,2013-11-26 06:42:00,
2013-11-26 07:47:00,43.0,40.0,30.55,NNE,31,0.0,0.0,89,0.00,OVC,,0.00,0.0,WeatherDisplay:10.37,2013-11-26 06:47:00,
2013-11-26 07:52:00,43.0,40.0,30.55,NNE,31,0.0,0.0,89,0.00,OVC,,0.00,0.0,WeatherDisplay:10.37,2013-11-26 06:52:00,
2013-11-26 07:57:00,43.0,40.0,30.55,NNE,31,0.0,0.0,89,0.00,OVC,,0.00,0.0,WeatherDisplay:10.37,2013-11-26 06:57:00,
2013-11-26 08:02:00,43.0,40.0,30.55,NNE,32,0.0,0.0,89,0.00,SCT,,0.00,0.0,WeatherDisplay:10.37,2013-11-26 07:02:00,
2013-11-26 08:07:00,43.0,40.0,30.55,NNE,31,0.0,0.0,89,0.00,SCT,,0.00,0.0,WeatherDisplay:10.37,2013-11-26 07:07:00,
2013-11-26 08:12:00,43.0,40.0,30.55,NNE,31,0.0,0.0,89,0.00,SCT,,0.00,0.0,WeatherDisplay:10.37,2013-11-26 07:12:00,
2013-11-26 08:17:00,42.9,40.1,30.56,NNE,31,0.0,0.0,90,0.00,SCT,,0.00,5.0,WeatherDisplay:10.37,2013-11-26 07:17:00,
2013-11-26 08:22:00,42.9,39.9,30.56,NNE,31,0.0,0.0,89,0.00,SCT,,0.00,7.0,WeatherDisplay:10.37,2013-11-26 07:22:00,
2013-11-26 08:27:00,43.0,40.0,30.56,NNE,31,1.4,3.5,89,0.00,SCT,,0.00,7.0,WeatherDisplay:10.37,2013-11-26 07:27:00,
2013-11-26 08:32:00,43.0,40.0,30.57,NNE,31,2.7,3.5,89,0.01,RA,,0.01,7.0,WeatherDisplay:10.37,2013-11-26 07:32:00,
2013-11-26 08:37:00,43.2,40.2,30.56,NNE,31,0.0,0.0,89,0.01,RA,,0.01,12.0,WeatherDisplay:10.37,2013-11-26 07:37:00,
2013-11-26 08:42:00,43.4,40.4,30.56,NNE,31,0.0,0.0,89,0.01,RA,,0.01,28.0,WeatherDisplay:10.37,2013-11-26 07:42:00,
2013-11-26 08:47:00,43.5,40.5,30.56,NNE,31,0.3,3.5,89,0.01,RA,,0.01,33.0,WeatherDisplay:10.37,2013-11-26 07:47:00,
2013-11-26 08:52:00,43.5,40.5,30.56,NNE,31,2.6,3.5,89,0.01,RA,,0.01,39.0,WeatherDisplay:10.37,2013-11-26 07:52:00,
2013-11-26 08:57:00,43.7,40.7,30.56,NNE,31,3.8,4.6,89,0.01,RA,,0.01,30.0,WeatherDisplay:10.37,2013-11-26 07:57:00,
2013-11-26 09:02:00,43.8,40.7,30.56,NNE,31,0.0,0.0,89,0.01,-RA,,0.01,28.0,WeatherDisplay:10.37,2013-11-26 08:02:00,
2013-11-26 09:07:00,43.9,40.8,30.56,NE,38,0.0,0.0,89,0.01,-RA,,0.01,21.0,WeatherDisplay:10.37,2013-11-26 08:07:00,
2013-11-26 09:12:00,43.9,40.6,30.56,NE,38,0.0,0.0,88,0.01,-RA,,0.01,35.0,WeatherDisplay:10.37,2013-11-26 08:12:00,
2013-11-26 09:17:00,44.0,40.7,30.56,NE,45,0.0,1.2,88,0.01,-RA,,0.01,35.0,WeatherDisplay:10.37,2013-11-26 08:17:00,
2013-11-26 09:22:00,44.0,40.7,30.56,NE,45,0.0,0.0,88,0.01,-RA,,0.01,42.0,WeatherDisplay:10.37,2013-11-26 08:22:00,
2013-11-26 10:25:00,45.1,40.8,30.57,North,1,4.0,4.0,85,0.00,-RA,,0.01,83.0,WeatherDisplay:10.37,2013-11-26 09:25:00,
2013-11-26 10:30:00,45.3,41.0,30.57,North,1,4.3,5.8,85,0.00,-RA,,0.01,88.0,WeatherDisplay:10.37,2013-11-26 09:30:00,
2013-11-26 10:35:00,45.5,40.9,30.57,North,1,1.5,4.6,84,0.00,OVC,,0.01,90.0,WeatherDisplay:10.37,2013-11-26 09:35:00,
2013-11-26 10:40:00,45.6,41.0,30.57,North,5,3.8,4.6,84,0.00,OVC,,0.01,91.0,WeatherDisplay:10.37,2013-11-26 09:40:00,
2013-11-26 10:45:00,45.7,41.1,30.57,North,1,2.6,5.8,84,0.00,OVC,,0.01,105.0,WeatherDisplay:10.37,2013-11-26 09:45:00,
2013-11-26 10:50:00,45.8,40.9,30.57,North,5,4.6,8.1,83,0.00,OVC,,0.01,93.0,WeatherDisplay:10.37,2013-11-26 09:50:00,
2013-11-26 10:55:00,45.9,41.0,30.57,North,5,2.2,3.5,83,0.00,OVC,,0.01,84.0,WeatherDisplay:10.37,2013-11-26 09:55:00,
2013-11-26 11:01:00,46.0,41.1,30.58,North,5,1.9,4.0,83,0.00,OVC,,0.01,60.0,WeatherDisplay:10.37,2013-11-26 10:01:00,
2013-11-26 11:06:00,46.0,41.1,30.58,North,5,0.0,1.2,83,0.00,OVC,,0.01,74.0,WeatherDisplay:10.37,2013-11-26 10:06:00,
2013-11-26 11:11:00,46.0,41.1,30.57,North,5,0.0,1.2,83,0.00,OVC,,0.01,69.0,WeatherDisplay:10.37,2013-11-26 10:11:00,
2013-11-26 11:16:00,46.0,41.1,30.57,North,5,0.3,2.3,83,0.00,OVC,,0.01,83.0,WeatherDisplay:10.37,2013-11-26 10:16:00,
2013-11-26 11:21:00,46.0,41.1,30.57,North,5,0.0,0.0,83,0.00,OVC,,0.01,91.0,WeatherDisplay:10.37,2013-11-26 10:21:00,
2013-11-26 11:26:00,46.0,41.1,30.57,North,5,1.8,4.6,83,0.00,OVC,,0.01,54.0,WeatherDisplay:10.37,2013-11-26 10:26:00,
2013-11-26 11:31:00,46.1,41.2,30.56,North,5,1.9,3.5,83,0.00,OVC,,0.01,51.0,WeatherDisplay:10.37,2013-11-26 10:31:00,
2013-11-26 11:36:00,46.1,40.9,30.56,North,5,2.7,4.6,82,0.00,OVC,,0.01,67.0,WeatherDisplay:10.37,2013-11-26 10:36:00,
2013-11-26 11:41:00,46.1,40.6,30.57,North,5,0.0,2.3,81,0.00,OVC,,0.01,63.0,WeatherDisplay:10.37,2013-11-26 10:41:00,
2013-11-26 11:46:00,46.1,40.6,30.57,North,351,3.2,5.8,81,0.00,OVC,,0.01,72.0,WeatherDisplay:10.37,2013-11-26 10:46:00,
2013-11-26 11:51:00,46.2,40.4,30.57,North,351,4.1,8.1,80,0.00,OVC,,0.01,72.0,WeatherDisplay:10.37,2013-11-26 10:51:00,
2013-11-26 11:56:00,46.3,40.4,30.57,North,11,5.2,9.2,80,0.00,OVC,,0.01,113.0,WeatherDisplay:10.37,2013-11-26 10:56:00,
2013-11-26 12:01:00,46.3,40.4,30.57,North,351,3.8,7.0,80,0.00,OVC,,0.01,142.0,WeatherDisplay:10.37,2013-11-26 11:01:00,
2013-11-26 12:06:00,46.2,40.4,30.57,North,351,0.9,3.5,80,0.00,OVC,,0.01,104.0,WeatherDisplay:10.37,2013-11-26 11:06:00,
2013-11-26 12:11:00,46.2,40.7,30.57,North,351,0.0,0.0,81,0.00,OVC,,0.01,104.0,WeatherDisplay:10.37,2013-11-26 11:11:00,
2013-11-26 12:16:00,46.2,40.7,30.57,North,351,3.4,5.8,81,0.00,OVC,,0.01,102.0,WeatherDisplay:10.37,2013-11-26 11:16:00,
2013-11-26 12:21:00,46.2,40.7,30.57,North,351,0.0,0.0,81,0.00,OVC,,0.01,90.0,WeatherDisplay:10.37,2013-11-26 11:21:00,
2013-11-26 12:26:00,46.3,40.8,30.57,North,351,2.0,3.5,81,0.00,OVC,,0.01,127.0,WeatherDisplay:10.37,2013-11-26 11:26:00,
2013-11-26 12:31:00,46.4,40.5,30.57,North,351,2.3,3.5,80,0.00,OVC,,0.01,137.0,WeatherDisplay:10.37,2013-11-26 11:31:00,
2013-11-26 12:36:00,46.4,40.5,30.57,North,1,4.0,5.8,80,0.00,OVC,,0.01,162.0,WeatherDisplay:10.37,2013-11-26 11:36:00,
2013-11-26 12:41:00,46.6,40.7,30.57,North,1,3.2,4.6,80,0.00,OVC,,0.01,151.0,WeatherDisplay:10.37,2013-11-26 11:41:00,
2013-11-26 12:46:00,46.7,40.8,30.57,North,1,0.1,1.2,80,0.00,OVC,,0.01,142.0,WeatherDisplay:10.37,2013-11-26 11:46:00,
2013-11-26 12:51:00,46.9,40.7,30.56,North,1,4.8,5.8,79,0.00,OVC,,0.01,151.0,WeatherDisplay:10.37,2013-11-26 11:51:00,
2013-11-26 12:56:00,47.0,40.5,30.56,North,1,2.9,4.6,78,0.00,OVC,,0.01,156.0,WeatherDisplay:10.37,2013-11-26 11:56:00,
2013-11-26 13:01:00,47.2,40.3,30.56,North,1,3.2,5.8,77,0.00,BKN,,0.01,132.0,WeatherDisplay:10.37,2013-11-26 12:01:00,
2013-11-26 13:06:00,47.3,40.1,30.56,North,5,6.1,11.0,76,0.00,BKN,,0.01,109.0,WeatherDisplay:10.37,2013-11-26 12:06:00,
2013-11-26 13:11:00,47.4,39.5,30.56,NNE,13,4.0,8.0,74,0.00,BKN,,0.01,90.0,WeatherDisplay:10.37,2013-11-26 12:11:00,
2013-11-26 13:16:00,47.4,39.2,30.56,NNE,26,5.9,8.1,73,0.00,BKN,,0.01,86.0,WeatherDisplay:10.37,2013-11-26 12:16:00,
2013-11-26 13:21:00,47.4,39.2,30.56,NNE,30,2.8,3.5,73,0.00,BKN,,0.01,83.0,WeatherDisplay:10.37,2013-11-26 12:21:00,
2013-11-26 13:26:00,47.4,39.2,30.56,NNE,15,0.6,5.8,73,0.00,BKN,,0.01,74.0,WeatherDisplay:10.37,2013-11-26 12:26:00,
2013-11-26 13:31:00,47.4,38.8,30.56,North,5,5.8,6.9,72,0.00,OVC,,0.01,69.0,WeatherDisplay:10.37,2013-11-26 12:31:00,
2013-11-26 13:36:00,47.4,38.8,30.55,North,5,3.9,5.8,72,0.00,OVC,,0.01,93.0,WeatherDisplay:10.37,2013-11-26 12:36:00,
2013-11-26 13:41:00,47.4,39.2,30.55,North,9,3.2,6.9,73,0.00,OVC,,0.01,102.0,WeatherDisplay:10.37,2013-11-26 12:41:00,
2013-11-26 13:46:00,47.4,38.8,30.55,NNE,18,5.9,8.1,72,0.00,OVC,,0.01,90.0,WeatherDisplay:10.37,2013-11-26 12:46:00,
2013-11-26 13:51:00,47.4,38.8,30.55,North,1,5.5,8.1,72,0.00,OVC,,0.01,81.0,WeatherDisplay:10.37,2013-11-26 12:51:00,
2013-11-26 13:56:00,47.4,38.8,30.55,North,1,4.8,5.8,72,0.00,OVC,,0.01,70.0,WeatherDisplay:10.37,2013-11-26 12:56:00,
2013-11-26 14:01:00,47.5,39.3,30.55,North,1,5.0,8.1,73,0.00,OVC,,0.01,74.0,WeatherDisplay:10.37,2013-11-26 13:01:00,
2013-11-26 14:06:00,47.4,38.8,30.55,NNW,345,5.0,10.4,72,0.00,OVC,,0.01,83.0,WeatherDisplay:10.37,2013-11-26 13:06:00,
2013-11-26 14:11:00,47.4,38.4,30.55,North,356,5.5,8.0,71,0.00,OVC,,0.01,84.0,WeatherDisplay:10.37,2013-11-26 13:11:00,
2013-11-26 14:16:00,47.4,38.4,30.55,North,8,6.3,9.2,71,0.00,OVC,,0.01,81.0,WeatherDisplay:10.37,2013-11-26 13:16:00,
2013-11-26 14:21:00,47.4,38.8,30.55,North,356,4.9,5.8,72,0.00,OVC,,0.01,84.0,WeatherDisplay:10.37,2013-11-26 13:21:00,
2013-11-26 14:26:00,47.4,39.2,30.55,NNW,334,0.3,3.5,73,0.00,OVC,,0.01,88.0,WeatherDisplay:10.37,2013-11-26 13:26:00,
2013-11-26 14:31:00,47.5,39.3,30.55,NNW,339,4.2,6.9,73,0.00,OVC,,0.01,86.0,WeatherDisplay:10.37,2013-11-26 13:31:00,
2013-11-26 14:36:00,47.5,39.6,30.55,NNW,346,4.1,5.0,74,0.00,OVC,,0.01,86.0,WeatherDisplay:10.37,2013-11-26 13:36:00,
2013-11-26 14:41:00,47.5,39.9,30.55,North,1,3.0,9.0,75,0.00,OVC,,0.01,72.0,WeatherDisplay:10.37,2013-11-26 13:41:00,
2013-11-26 14:46:00,47.3,39.8,30.54,North,5,4.3,8.0,75,0.00,OVC,,0.01,67.0,WeatherDisplay:10.37,2013-11-26 13:46:00,
2013-11-26 14:51:00,47.2,39.7,30.55,North,1,7.0,9.2,75,0.00,OVC,,0.01,58.0,WeatherDisplay:10.37,2013-11-26 13:51:00,
2013-11-26 14:56:00,47.1,39.9,30.55,NNW,337,6.6,10.4,76,0.00,OVC,,0.01,53.0,WeatherDisplay:10.37,2013-11-26 13:56:00,
2013-11-26 15:01:00,46.8,39.3,30.55,NNW,334,5.4,9.2,75,0.00,BKN,,0.01,51.0,WeatherDisplay:10.37,2013-11-26 14:01:00,
2013-11-26 15:06:00,46.6,39.4,30.54,NNW,340,4.2,5.8,76,0.00,BKN,,0.01,49.0,WeatherDisplay:10.37,2013-11-26 14:06:00,
2013-11-26 15:17:00,46.4,39.2,30.55,NNW,334,6.7,10.0,76,0.00,BKN,,0.01,46.0,WeatherDisplay:10.37,2013-11-26 14:17:00,
2013-11-26 15:22:00,45.9,39.7,30.55,NW,319,3.9,6.9,79,0.00,BKN,,0.01,46.0,WeatherDisplay:10.37,2013-11-26 14:22:00,
2013-11-26 15:27:00,45.8,39.6,30.55,NW,321,3.2,4.6,79,0.00,BKN,,0.01,47.0,WeatherDisplay:10.37,2013-11-26 14:27:00,
2013-11-26 15:32:00,45.8,39.3,30.54,NW,322,2.2,3.5,78,0.00,BKN,,0.01,42.0,WeatherDisplay:10.37,2013-11-26 14:32:00,
2013-11-26 15:37:00,45.8,39.3,30.54,NW,322,0.0,0.0,78,0.00,BKN,,0.01,39.0,WeatherDisplay:10.37,2013-11-26 14:37:00,
2013-11-26 15:42:00,45.9,39.1,30.54,NW,322,0.0,2.3,77,0.00,FEW,,0.01,39.0,WeatherDisplay:10.37,2013-11-26 14:42:00,
2013-11-26 15:47:00,45.9,39.1,30.54,NW,322,0.0,0.0,77,0.00,FEW,,0.01,35.0,WeatherDisplay:10.37,2013-11-26 14:47:00,
2013-11-26 15:52:00,46.0,39.2,30.54,NW,322,0.0,0.0,77,0.00,FEW,,0.01,26.0,WeatherDisplay:10.37,2013-11-26 14:52:00,
2013-11-26 15:57:00,46.1,38.9,30.53,NW,322,0.0,0.0,76,0.00,FEW,,0.01,19.0,WeatherDisplay:10.37,2013-11-26 14:57:00,
2013-11-26 16:02:00,46.1,38.9,30.53,NW,322,3.5,4.6,76,0.00,BKN,,0.01,12.0,WeatherDisplay:10.37,2013-11-26 15:02:00,
2013-11-26 16:07:00,46.2,39.0,30.53,NW,322,2.0,3.5,76,0.00,BKN,,0.01,11.0,WeatherDisplay:10.37,2013-11-26 15:07:00,
2013-11-26 16:12:00,46.3,39.8,30.54,North,8,4.8,6.9,78,0.00,BKN,,0.01,7.0,WeatherDisplay:10.37,2013-11-26 15:12:00,
2013-11-26 16:17:00,46.2,39.7,30.54,North,1,4.1,8.1,78,0.00,BKN,,0.01,7.0,WeatherDisplay:10.37,2013-11-26 15:17:00,
2013-11-26 16:22:00,46.2,40.4,30.53,North,1,3.3,3.5,80,0.00,BKN,,0.01,9.0,WeatherDisplay:10.37,2013-11-26 15:22:00,
2013-11-26 16:27:00,46.0,39.8,30.53,North,1,2.6,4.6,79,0.00,BKN,,0.01,7.0,WeatherDisplay:10.37,2013-11-26 15:27:00,
2013-11-26 16:32:00,45.9,39.7,30.53,North,1,3.0,4.6,79,0.00,FEW,,0.01,0.0,WeatherDisplay:10.37,2013-11-26 15:32:00,
2013-11-26 16:37:00,45.9,40.1,30.53,North,1,1.8,4.6,80,0.00,FEW,,0.01,0.0,WeatherDisplay:10.37,2013-11-26 15:37:00,
2013-11-26 16:42:00,45.8,40.0,30.53,North,1,3.5,6.9,80,0.00,FEW,,0.01,0.0,WeatherDisplay:10.37,2013-11-26 15:42:00,
2013-11-26 16:47:00,45.6,39.8,30.53,North,1,2.4,4.6,80,0.00,FEW,,0.01,0.0,WeatherDisplay:10.37,2013-11-26 15:47:00,
2013-11-26 16:52:00,45.5,39.7,30.53,North,1,2.1,3.5,80,0.00,FEW,,0.01,0.0,WeatherDisplay:10.37,2013-11-26 15:52:00,
2013-11-26 16:57:00,45.4,39.6,30.53,North,1,1.1,3.5,80,0.00,FEW,,0.01,0.0,WeatherDisplay:10.37,2013-11-26 15:57:00,
2013-11-26 17:07:00,45.4,39.6,30.53,North,1,3.2,6.0,80,0.00,FEW,,0.01,0.0,WeatherDisplay:10.37,2013-11-26 16:07:00,
2013-11-26 17:12:00,45.4,39.6,30.53,North,1,4.2,6.0,80,0.00,BKN,,0.01,0.0,WeatherDisplay:10.37,2013-11-26 16:12:00,
2013-11-26 17:17:00,45.4,39.9,30.54,North,1,4.3,4.6,81,0.00,BKN,,0.01,0.0,WeatherDisplay:10.37,2013-11-26 16:17:00,
2013-11-26 17:22:00,45.3,39.8,30.53,North,1,0.0,0.0,81,0.00,BKN,,0.01,0.0,WeatherDisplay:10.37,2013-11-26 16:22:00,
2013-11-26 17:27:00,45.3,39.8,30.53,North,1,0.0,0.0,81,0.00,BKN,,0.01,0.0,WeatherDisplay:10.37,2013-11-26 16:27:00,
2013-11-26 17:32:00,45.2,39.7,30.54,North,1,0.0,0.0,81,0.00,BKN,,0.01,0.0,WeatherDisplay:10.37,2013-11-26 16:32:00,
2013-11-26 17:37:00,45.3,40.1,30.54,North,1,0.0,0.0,82,0.00,BKN,,0.01,0.0,WeatherDisplay:10.37,2013-11-26 16:37:00,
2013-11-26 17:42:00,45.3,39.8,30.54,NNE,19,2.6,4.6,81,0.00,OVC,,0.01,0.0,WeatherDisplay:10.37,2013-11-26 16:42:00,
2013-11-26 17:47:00,45.3,39.8,30.53,NNE,24,3.2,5.0,81,0.00,OVC,,0.01,0.0,WeatherDisplay:10.37,2013-11-26 16:47:00,
2013-11-26 17:52:00,45.3,40.1,30.54,NNE,24,0.3,3.5,82,0.00,OVC,,0.01,0.0,WeatherDisplay:10.37,2013-11-26 16:52:00,
2013-11-26 17:57:00,45.3,40.1,30.54,NNE,24,0.2,2.0,82,0.00,OVC,,0.01,0.0,WeatherDisplay:10.37,2013-11-26 16:57:00,
2013-11-26 18:02:00,45.3,40.1,30.54,NNE,24,0.0,0.0,82,0.00,OVC,,0.01,0.0,WeatherDisplay:10.37,2013-11-26 17:02:00,
2013-11-26 18:07:00,45.3,40.1,30.54,NNE,24,2.0,3.5,82,0.00,OVC,,0.01,0.0,WeatherDisplay:10.37,2013-11-26 17:07:00,
2013-11-26 18:12:00,45.2,40.3,30.54,NNE,24,0.4,2.0,83,0.00,OVC,,0.01,0.0,WeatherDisplay:10.37,2013-11-26 17:12:00,
2013-11-26 18:17:00,45.2,40.3,30.54,NNE,24,0.0,0.0,83,0.00,OVC,,0.01,0.0,WeatherDisplay:10.37,2013-11-26 17:17:00,
2013-11-26 18:22:00,45.2,40.3,30.54,NNE,24,0.0,0.0,83,0.00,OVC,,0.01,0.0,WeatherDisplay:10.37,2013-11-26 17:22:00,
2013-11-26 18:27:00,45.1,40.2,30.55,NNE,24,0.6,3.5,83,0.00,OVC,,0.01,0.0,WeatherDisplay:10.37,2013-11-26 17:27:00,
2013-11-26 18:32:00,45.1,40.5,30.54,NNE,24,0.0,0.0,84,0.00,-RA,,0.01,0.0,WeatherDisplay:10.37,2013-11-26 17:32:00,
2013-11-26 18:37:00,45.0,40.4,30.54,NNE,24,0.0,0.0,84,0.00,-RA,,0.01,0.0,WeatherDisplay:10.37,2013-11-26 17:37:00,
2013-11-26 18:42:00,44.9,40.3,30.55,NNE,24,0.0,0.0,84,0.00,-RA,,0.01,0.0,WeatherDisplay:10.37,2013-11-26 17:42:00,
2013-11-26 18:47:00,44.8,40.2,30.54,NNE,24,0.0,0.0,84,0.00,-RA,,0.01,0.0,WeatherDisplay:10.37,2013-11-26 17:47:00,
2013-11-26 18:52:00,44.8,40.5,30.54,NNE,24,0.0,0.0,85,0.00,-RA,,0.01,0.0,WeatherDisplay:10.37,2013-11-26 17:52:00,
2013-11-26 18:57:00,44.7,40.4,30.54,NNE,24,0.0,0.0,85,0.00,-RA,,0.01,0.0,WeatherDisplay:10.37,2013-11-26 17:57:00,
2013-11-26 19:02:00,44.5,40.3,30.54,NNE,24,0.0,0.0,85,0.00,-RA,,0.01,0.0,WeatherDisplay:10.37,2013-11-26 18:02:00,
2013-11-26 19:07:00,44.3,40.4,30.54,NNE,24,0.0,0.0,86,0.00,-RA,,0.01,0.0,WeatherDisplay:10.37,2013-11-26 18:07:00,
2013-11-26 19:12:00,44.1,40.2,30.54,NNE,24,0.0,0.0,86,0.00,-RA,,0.01,0.0,WeatherDisplay:10.37,2013-11-26 18:12:00,
2013-11-26 19:17:00,44.0,40.4,30.53,NNE,24,0.0,0.0,87,0.00,-RA,,0.01,0.0,WeatherDisplay:10.37,2013-11-26 18:17:00,
2013-11-26 19:22:00,43.8,40.2,30.53,NNE,24,0.0,0.0,87,0.00,-RA,,0.01,0.0,WeatherDisplay:10.37,2013-11-26 18:22:00,
2013-11-26 19:27:00,43.6,40.0,30.53,NNE,24,0.0,0.0,87,0.00,-RA,,0.01,0.0,WeatherDisplay:10.37,2013-11-26 18:27:00,
2013-11-26 19:32:00,43.5,40.2,30.53,NNE,24,0.0,0.0,88,0.00,OVC,,0.01,0.0,WeatherDisplay:10.37,2013-11-26 18:32:00,
2013-11-26 19:37:00,43.4,40.1,30.53,NNE,24,1.5,3.5,88,0.00,OVC,,0.01,0.0,WeatherDisplay:10.37,2013-11-26 18:37:00,
2013-11-26 19:42:00,43.3,40.0,30.53,NNE,24,0.0,0.0,88,0.00,OVC,,0.01,0.0,WeatherDisplay:10.37,2013-11-26 18:42:00,
2013-11-26 19:47:00,43.2,40.2,30.54,NNE,24,0.0,0.0,89,0.00,OVC,,0.01,0.0,WeatherDisplay:10.37,2013-11-26 18:47:00,
2013-11-26 19:52:00,43.2,40.2,30.54,NNE,24,0.0,0.0,89,0.00,OVC,,0.01,0.0,WeatherDisplay:10.37,2013-11-26 18:52:00,
2013-11-26 19:57:00,43.1,40.1,30.54,NNE,24,0.0,0.0,89,0.00,OVC,,0.01,0.0,WeatherDisplay:10.37,2013-11-26 18:57:00,
2013-11-26 20:02:00,43.0,40.0,30.54,NNE,24,0.0,0.0,89,0.00,OVC,,0.01,0.0,WeatherDisplay:10.37,2013-11-26 19:02:00,
2013-11-26 20:07:00,42.9,39.9,30.54,NNE,24,0.0,0.0,89,0.00,OVC,,0.01,0.0,WeatherDisplay:10.37,2013-11-26 19:07:00,
2013-11-26 20:12:00,42.8,39.8,30.54,NNE,24,0.0,0.0,89,0.00,OVC,,0.01,0.0,WeatherDisplay:10.37,2013-11-26 19:12:00,
2013-11-26 20:17:00,42.7,39.7,30.54,NNE,24,0.0,0.0,89,0.00,OVC,,0.01,0.0,WeatherDisplay:10.37,2013-11-26 19:17:00,
2013-11-26 20:22:00,42.5,39.5,30.54,NNE,24,0.0,0.0,89,0.00,OVC,,0.01,0.0,WeatherDisplay:10.37,2013-11-26 19:22:00,
2013-11-26 20:27:00,42.3,39.3,30.54,NNE,24,0.0,0.0,89,0.00,OVC,,0.01,0.0,WeatherDisplay:10.37,2013-11-26 19:27:00,
2013-11-26 20:32:00,42.2,39.5,30.54,NNE,24,0.0,0.0,90,0.00,OVC,,0.01,0.0,WeatherDisplay:10.37,2013-11-26 19:32:00,
2013-11-26 20:37:00,42.1,39.4,30.54,NNE,24,0.0,0.0,90,0.00,OVC,,0.01,0.0,WeatherDisplay:10.37,2013-11-26 19:37:00,
2013-11-26 20:42:00,42.0,39.3,30.54,NNE,24,0.0,0.0,90,0.00,OVC,,0.01,0.0,WeatherDisplay:10.37,2013-11-26 19:42:00,
2013-11-26 20:47:00,41.9,39.2,30.53,NNE,24,0.0,0.0,90,0.00,OVC,,0.01,0.0,WeatherDisplay:10.37,2013-11-26 19:47:00,
2013-11-26 20:52:00,42.0,39.3,30.53,NNE,24,0.0,0.0,90,0.00,OVC,,0.01,0.0,WeatherDisplay:10.37,2013-11-26 19:52:00,
2013-11-26 20:57:00,42.0,39.5,30.53,NNE,24,0.0,0.0,91,0.00,OVC,,0.01,0.0,WeatherDisplay:10.37,2013-11-26 19:57:00,
2013-11-26 21:02:00,42.1,39.6,30.53,NNE,24,0.0,0.0,91,0.00,SCT,,0.01,0.0,WeatherDisplay:10.37,2013-11-26 20:02:00,
2013-11-26 21:07:00,42.1,39.6,30.53,NNE,24,0.0,0.0,91,0.00,SCT,,0.01,0.0,WeatherDisplay:10.37,2013-11-26 20:07:00,
2013-11-26 21:12:00,42.1,39.6,30.53,NNE,24,0.0,0.0,91,0.00,SCT,,0.01,0.0,WeatherDisplay:10.37,2013-11-26 20:12:00,
2013-11-26 21:17:00,42.1,39.6,30.53,NNE,24,0.0,0.0,91,0.00,SCT,,0.01,0.0,WeatherDisplay:10.37,2013-11-26 20:17:00,
2013-11-26 21:22:00,42.2,39.7,30.53,NNE,24,0.0,0.0,91,0.00,SCT,,0.01,0.0,WeatherDisplay:10.37,2013-11-26 20:22:00,
2013-11-26 21:29:00,42.2,39.7,30.53,NNE,24,0.0,0.0,91,0.00,SCT,,0.01,0.0,WeatherDisplay:10.37,2013-11-26 20:29:00,
2013-11-26 21:34:00,42.2,39.7,30.53,NNE,24,0.0,0.0,91,0.00,OVC,,0.01,0.0,WeatherDisplay:10.37,2013-11-26 20:34:00,
2013-11-26 21:39:00,42.2,39.7,30.53,NNE,24,0.0,0.0,91,0.00,OVC,,0.01,0.0,WeatherDisplay:10.37,2013-11-26 20:39:00,
2013-11-26 21:44:00,42.2,40.0,30.53,NNE,24,0.0,0.0,92,0.00,OVC,,0.01,0.0,WeatherDisplay:10.37,2013-11-26 20:44:00,
2013-11-26 21:49:00,42.2,40.0,30.53,NNE,24,0.0,0.0,92,0.00,OVC,,0.01,0.0,WeatherDisplay:10.37,2013-11-26 20:49:00,
2013-11-26 21:54:00,42.3,39.8,30.53,NNE,24,0.0,0.0,91,0.00,OVC,,0.01,0.0,WeatherDisplay:10.37,2013-11-26 20:54:00,
2013-11-26 21:59:00,42.3,39.8,30.53,NNE,24,0.0,0.0,91,0.00,OVC,,0.01,0.0,WeatherDisplay:10.37,2013-11-26 20:59:00,
2013-11-26 22:04:00,42.2,40.0,30.52,NNE,24,0.0,0.0,92,0.00,OVC,,0.01,0.0,WeatherDisplay:10.37,2013-11-26 21:04:00,
2013-11-26 22:09:00,42.2,40.0,30.52,NNE,24,0.0,0.0,92,0.00,OVC,,0.01,0.0,WeatherDisplay:10.37,2013-11-26 21:09:00,
2013-11-26 22:14:00,42.2,40.0,30.52,NNE,24,0.1,2.3,92,0.00,OVC,,0.01,0.0,WeatherDisplay:10.37,2013-11-26 21:14:00,
2013-11-26 22:19:00,42.4,40.2,30.52,NNE,24,0.0,0.0,92,0.00,OVC,,0.01,0.0,WeatherDisplay:10.37,2013-11-26 21:19:00,
2013-11-26 22:24:00,42.5,40.3,30.52,NNE,24,0.0,0.0,92,0.00,OVC,,0.01,0.0,WeatherDisplay:10.37,2013-11-26 21:24:00,
2013-11-26 22:29:00,42.6,40.4,30.52,NNE,24,0.0,0.0,92,0.00,OVC,,0.01,0.0,WeatherDisplay:10.37,2013-11-26 21:29:00,
2013-11-26 22:34:00,42.7,40.5,30.52,NNE,24,0.0,0.0,92,0.00,OVC,,0.01,0.0,WeatherDisplay:10.37,2013-11-26 21:34:00,
2013-11-26 22:39:00,42.7,40.5,30.52,NNE,24,0.0,0.0,92,0.00,OVC,,0.01,0.0,WeatherDisplay:10.37,2013-11-26 21:39:00,
2013-11-26 22:44:00,42.7,40.5,30.52,NNE,24,0.0,0.0,92,0.00,OVC,,0.01,0.0,WeatherDisplay:10.37,2013-11-26 21:44:00,
2013-11-26 22:49:00,42.7,40.5,30.52,NNE,24,0.0,0.0,92,0.00,OVC,,0.01,0.0,WeatherDisplay:10.37,2013-11-26 21:49:00,
2013-11-26 22:54:00,42.8,40.6,30.52,NNE,24,0.0,0.0,92,0.00,OVC,,0.01,0.0,WeatherDisplay:10.37,2013-11-26 21:54:00,
2013-11-26 22:59:00,42.9,40.7,30.52,NNE,24,0.0,0.0,92,0.00,OVC,,0.01,0.0,WeatherDisplay:10.37,2013-11-26 21:59:00,
2013-11-26 23:04:00,42.9,40.7,30.52,NNE,24,0.0,0.0,92,0.00,OVC,,0.01,0.0,WeatherDisplay:10.37,2013-11-26 22:04:00,
2013-11-26 23:09:00,42.9,40.7,30.52,NNE,24,0.0,0.0,92,0.00,OVC,,0.01,0.0,WeatherDisplay:10.37,2013-11-26 22:09:00,
2013-11-26 23:14:00,43.0,40.8,30.52,NNE,24,0.0,0.0,92,0.00,OVC,,0.01,0.0,WeatherDisplay:10.37,2013-11-26 22:14:00,
2013-11-26 23:19:00,43.1,40.9,30.52,NNE,24,0.0,0.0,92,0.00,OVC,,0.01,0.0,WeatherDisplay:10.37,2013-11-26 22:19:00,
2013-11-26 23:24:00,43.2,41.0,30.52,NNE,24,0.0,0.0,92,0.00,OVC,,0.01,0.0,WeatherDisplay:10.37,2013-11-26 22:24:00,
2013-11-26 23:29:00,43.3,40.8,30.51,NNE,24,0.0,0.0,91,0.00,OVC,,0.01,0.0,WeatherDisplay:10.37,2013-11-26 22:29:00,
2013-11-26 23:34:00,43.4,40.9,30.51,NNE,24,0.0,0.0,91,0.00,OVC,,0.01,0.0,WeatherDisplay:10.37,2013-11-26 22:34:00,
2013-11-26 23:39:00,43.4,40.9,30.51,NNE,24,0.0,0.0,91,0.00,OVC,,0.01,0.0,WeatherDisplay:10.37,2013-11-26 22:39:00,
2013-11-26 23:44:00,43.4,40.9,30.51,NNE,24,0.0,0.0,91,0.00,OVC,,0.01,0.0,WeatherDisplay:10.37,2013-11-26 22:44:00,
2013-11-26 23:49:00,43.4,40.6,30.51,NNE,24,0.0,0.0,90,0.00,OVC,,0.01,0.0,WeatherDisplay:10.37,2013-11-26 22:49:00,
2013-11-26 23:54:00,43.5,40.7,30.51,NNE,24,0.5,4.0,90,0.00,OVC,,0.01,0.0,WeatherDisplay:10.37,2013-11-26 22:54:00,
2013-11-26 23:59:00,43.6,40.8,30.51,NNE,24,1.4,1.4,90,0.00,OVC,,0.01,0.0,WeatherDisplay:10.37,2013-11-26 22:59:00,